1998-067TD

Last updated on Wed Nov 16 2022 00:02:06 GMT+0000 (Coordinated Universal Time)

1 51441U 98067TD 22319.08488380 .09410115 12331-4 75601-3 0 9998 2 51441 51.6071 274.6204 0002682 184.2926 175.8077 16.39172474 45910

Satellite not in orbit